TimeEDT,TemperatureF,Dew PointF,Humidity,Sea Level PressureIn,VisibilityMPH,Wind Direction,Wind SpeedMPH,Gust SpeedMPH,PrecipitationIn,Events,Conditions,WindDirDegrees,DateUTC
12:16 AM,62.6,62.6,100,30.13,2.0,Calm,Calm,-,N/A,,Scattered Clouds,0,2012-10-04 04:16:00
12:23 AM,62.6,60.8,94,30.13,1.0,Calm,Calm,-,N/A,,Scattered Clouds,0,2012-10-04 04:23:00
12:30 AM,60.8,60.8,100,30.13,0.5,Calm,Calm,-,N/A,Fog,Fog,0,2012-10-04 04:30:00
12:34 AM,60.8,60.8,100,30.13,0.2,Calm,Calm,-,N/A,Fog,Fog,0,2012-10-04 04:34:00
12:53 AM,61.0,59.0,93,30.12,0.5,Calm,Calm,-,N/A,Fog,Fog,0,2012-10-04 04:53:00
1:20 AM,62.6,60.8,94,30.14,1.0,SW,3.5,-,N/A,,Overcast,220,2012-10-04 05:20:00
1:27 AM,62.6,60.8,94,30.15,0.8,WSW,3.5,-,N/A,,Overcast,250,2012-10-04 05:27:00
1:36 AM,62.6,62.6,100,30.14,1.8,Calm,Calm,-,N/A,,Overcast,0,2012-10-04 05:36:00
1:43 AM,62.6,60.8,94,30.14,2.5,Calm,Calm,-,N/A,,Overcast,0,2012-10-04 05:43:00
1:53 AM,63.0,61.0,93,30.13,0.8,Calm,Calm,-,N/A,,Mist,0,2012-10-04 05:53:00
2:03 AM,62.6,60.8,94,30.14,0.2,Calm,Calm,-,N/A,Fog,Fog,0,2012-10-04 06:03:00
2:18 AM,64.4,62.6,94,30.14,1.0,Calm,Calm,-,N/A,,Overcast,0,2012-10-04 06:18:00
2:43 AM,64.4,62.6,94,30.14,0.2,Calm,Calm,-,N/A,Fog,Fog,0,2012-10-04 06:43:00
2:53 AM,64.0,63.0,96,30.13,0.2,Calm,Calm,-,N/A,Fog,Fog,0,2012-10-04 06:53:00
3:23 AM,62.6,62.6,100,30.14,1.0,Calm,Calm,-,N/A,,Mist,0,2012-10-04 07:23:00
3:33 AM,62.6,62.6,100,30.14,0.2,Calm,Calm,-,N/A,Fog,Fog,0,2012-10-04 07:33:00
3:53 AM,64.0,62.1,93,30.13,0.2,Calm,Calm,-,N/A,Fog,Fog,0,2012-10-04 07:53:00
4:04 AM,62.6,62.6,100,30.14,0.2,West,3.5,-,N/A,Fog,Fog,280,2012-10-04 08:04:00
4:41 AM,64.4,62.6,94,30.14,0.2,Calm,Calm,-,N/A,Fog,Fog,0,2012-10-04 08:41:00
4:53 AM,63.0,62.1,97,30.12,0.2,Calm,Calm,-,N/A,Fog,Fog,0,2012-10-04 08:53:00
5:19 AM,62.6,62.6,100,30.14,0.5,WSW,4.6,-,N/A,Fog,Fog,240,2012-10-04 09:19:00
5:45 AM,62.6,62.6,100,30.13,0.2,Calm,Calm,-,N/A,Fog,Fog,0,2012-10-04 09:45:00
5:53 AM,63.0,62.1,97,30.13,0.2,West,3.5,-,N/A,Fog,Fog,280,2012-10-04 09:53:00
6:53 AM,62.1,61.0,96,30.13,0.2,Calm,Calm,-,N/A,Fog,Fog,0,2012-10-04 10:53:00
7:44 AM,62.6,60.8,94,30.17,2.0,WSW,3.5,-,N/A,,Overcast,250,2012-10-04 11:44:00
7:50 AM,62.6,60.8,94,30.15,2.0,Calm,Calm,-,N/A,,Overcast,0,2012-10-04 11:50:00
7:53 AM,62.1,61.0,96,30.15,2.0,Calm,Calm,-,N/A,,Overcast,0,2012-10-04 11:53:00
8:28 AM,62.6,60.8,94,30.15,2.0,Calm,Calm,-,0.01,Rain,Light Rain,0,2012-10-04 12:28:00
8:53 AM,63.0,61.0,93,30.13,2.0,Calm,Calm,-,0.01,,Overcast,0,2012-10-04 12:53:00
9:19 AM,62.6,60.8,94,30.15,2.0,West,3.5,-,N/A,,Overcast,270,2012-10-04 13:19:00
9:48 AM,64.4,62.6,94,30.15,5.0,SSW,3.5,-,N/A,,Overcast,200,2012-10-04 13:48:00
9:53 AM,64.0,62.1,93,30.14,5.0,SW,3.5,-,N/A,,Overcast,220,2012-10-04 13:53:00
10:12 AM,64.4,62.6,94,30.14,7.0,SSW,3.5,-,N/A,,Mostly Cloudy,210,2012-10-04 14:12:00
10:53 AM,66.0,61.0,84,30.14,10.0,SW,4.6,-,N/A,,Mostly Cloudy,220,2012-10-04 14:53:00
11:53 AM,68.0,59.0,73,30.13,10.0,West,6.9,-,N/A,,Mostly Cloudy,260,2012-10-04 15:53:00
12:53 PM,68.0,59.0,73,30.12,10.0,SW,5.8,-,N/A,,Scattered Clouds,230,2012-10-04 16:53:00
1:53 PM,70.0,59.0,68,30.10,10.0,WNW,5.8,-,N/A,,Mostly Cloudy,290,2012-10-04 17:53:00
2:53 PM,70.0,55.9,61,30.08,10.0,SW,3.5,-,N/A,,Mostly Cloudy,230,2012-10-04 18:53:00
3:53 PM,71.1,52.0,51,30.07,10.0,West,6.9,-,N/A,,Scattered Clouds,270,2012-10-04 19:53:00
4:53 PM,73.0,50.0,44,30.06,10.0,West,6.9,-,N/A,,Clear,270,2012-10-04 20:53:00
5:53 PM,71.1,53.1,53,30.06,10.0,Calm,Calm,-,N/A,,Clear,0,2012-10-04 21:53:00
6:53 PM,61.0,54.0,78,30.06,10.0,Calm,Calm,-,N/A,,Clear,0,2012-10-04 22:53:00
7:53 PM,55.9,53.1,90,30.08,10.0,Calm,Calm,-,N/A,,Clear,0,2012-10-04 23:53:00
8:53 PM,55.9,52.0,87,30.08,10.0,Calm,Calm,-,N/A,,Clear,0,2012-10-05 00:53:00
9:53 PM,52.0,50.0,93,30.09,7.0,Calm,Calm,-,N/A,,Clear,0,2012-10-05 01:53:00
10:53 PM,51.1,48.9,92,30.09,7.0,West,3.5,-,N/A,,Clear,270,2012-10-05 02:53:00
11:53 PM,53.1,50.0,89,30.09,8.0,Calm,Calm,-,N/A,,Clear,0,2012-10-05 03:53:00